Time,TemperatureF,DewpointF,PressureIn,WindDirection,WindDirectionDegrees,WindSpeedMPH,WindSpeedGustMPH,Humidity,HourlyPrecipIn,Conditions,Clouds,dailyrainin,SoftwareType,DateUTC
2013-06-21 00:01:00,76.6,46.2,30.15,North,0,0.0,0.0,34,0.00,RA,FEW,0.00,WeatherDisplay:10.37,2013-06-21 04:01:00,
2013-06-21 00:02:00,76.6,46.2,30.15,North,0,0.0,0.0,34,0.00,RA,FEW,0.00,WeatherDisplay:10.37,2013-06-21 04:02:00,
2013-06-21 00:04:00,76.5,46.0,30.15,North,0,0.0,0.0,34,0.00,RA,FEW,0.00,WeatherDisplay:10.37,2013-06-21 04:04:00,
2013-06-21 00:07:00,76.5,46.0,30.15,North,0,0.0,0.0,34,0.00,RA,FEW,0.00,WeatherDisplay:10.37,2013-06-21 04:07:00,
2013-06-21 00:08:00,76.5,46.0,30.15,North,0,0.0,0.0,34,0.00,RA,FEW,0.00,WeatherDisplay:10.37,2013-06-21 04:08:00,
2013-06-21 00:13:00,76.5,45.2,30.15,North,0,0.0,0.0,33,0.00,CLR,FEW,0.00,WeatherDisplay:10.37,2013-06-21 04:13:00,
2013-06-21 00:18:00,76.5,46.0,30.15,North,0,0.0,0.0,34,0.00,CLR,FEW,0.00,WeatherDisplay:10.37,2013-06-21 04:18:00,
2013-06-21 00:24:00,76.3,45.8,30.15,North,0,0.0,0.0,34,0.00,CLR,FEW,0.00,WeatherDisplay:10.37,2013-06-21 04:24:00,
2013-06-21 00:29:00,76.3,46.6,30.15,North,0,0.0,0.0,35,0.00,CLR,FEW,0.00,WeatherDisplay:10.37,2013-06-21 04:29:00,
2013-06-21 00:34:00,76.1,46.5,30.15,North,0,0.0,0.0,35,0.00,CLR,FEW,0.00,WeatherDisplay:10.37,2013-06-21 04:34:00,
2013-06-21 00:39:00,76.1,47.2,30.15,North,0,0.0,0.0,36,0.00,CLR,FEW,0.00,WeatherDisplay:10.37,2013-06-21 04:39:00,
2013-06-21 00:44:00,75.9,47.0,30.15,North,0,0.0,0.0,36,0.00,CLR,FEW,0.00,WeatherDisplay:10.37,2013-06-21 04:44:00,
2013-06-21 00:49:00,75.7,47.6,30.15,North,0,0.0,0.0,37,0.00,CLR,FEW,0.00,WeatherDisplay:10.37,2013-06-21 04:49:00,
2013-06-21 00:54:00,75.6,47.5,30.15,North,0,0.0,0.0,37,0.00,CLR,FEW,0.00,WeatherDisplay:10.37,2013-06-21 04:54:00,
2013-06-21 00:59:00,75.4,46.6,30.15,North,0,0.0,0.0,36,0.00,CLR,FEW,0.00,WeatherDisplay:10.37,2013-06-21 04:59:00,
2013-06-21 01:04:00,75.2,45.7,30.15,North,0,0.0,0.0,35,0.00,CLR,FEW,0.00,WeatherDisplay:10.37,2013-06-21 05:04:00,
2013-06-21 01:09:00,75.0,46.2,30.15,North,0,0.0,0.0,36,0.00,CLR,FEW,0.00,WeatherDisplay:10.37,2013-06-21 05:09:00,
2013-06-21 01:14:00,74.8,46.1,30.15,North,0,0.0,0.0,36,0.00,CLR,FEW,0.00,WeatherDisplay:10.37,2013-06-21 05:14:00,
2013-06-21 01:19:00,74.7,45.2,30.15,North,0,0.0,0.0,35,0.00,CLR,FEW,0.00,WeatherDisplay:10.37,2013-06-21 05:19:00,
2013-06-21 01:24:00,74.7,45.9,30.15,North,0,0.0,0.0,36,0.00,CLR,FEW,0.00,WeatherDisplay:10.37,2013-06-21 05:24:00,
2013-06-21 01:29:00,74.5,45.8,30.15,North,0,0.0,0.0,36,0.00,CLR,FEW,0.00,WeatherDisplay:10.37,2013-06-21 05:29:00,
2013-06-21 01:34:00,74.3,45.6,30.15,North,0,0.0,0.0,36,0.00,CLR,FEW,0.00,WeatherDisplay:10.37,2013-06-21 05:34:00,
2013-06-21 01:39:00,74.3,45.6,30.15,North,0,0.0,0.0,36,0.00,CLR,FEW,0.00,WeatherDisplay:10.37,2013-06-21 05:39:00,
2013-06-21 01:44:00,74.1,45.5,30.15,North,0,0.0,0.0,36,0.00,CLR,FEW,0.00,WeatherDisplay:10.37,2013-06-21 05:44:00,
2013-06-21 01:49:00,73.9,45.3,30.15,North,0,0.0,0.0,36,0.00,CLR,FEW,0.00,WeatherDisplay:10.37,2013-06-21 05:49:00,
2013-06-21 01:54:00,73.6,45.0,30.15,North,0,0.0,0.0,36,0.00,CLR,FEW,0.00,WeatherDisplay:10.37,2013-06-21 05:54:00,
2013-06-21 01:59:00,73.2,44.7,30.15,North,0,0.0,0.0,36,0.00,CLR,FEW,0.00,WeatherDisplay:10.37,2013-06-21 05:59:00,
2013-06-21 02:04:00,72.9,44.3,30.15,North,0,0.0,0.0,36,0.00,CLR,FEW,0.00,WeatherDisplay:10.37,2013-06-21 06:04:00,
2013-06-21 02:09:00,72.1,43.7,30.15,North,0,0.0,0.0,36,0.00,CLR,FEW,0.00,WeatherDisplay:10.37,2013-06-21 06:09:00,
2013-06-21 02:14:00,71.6,43.2,30.15,North,0,0.0,0.0,36,0.00,CLR,FEW,0.00,WeatherDisplay:10.37,2013-06-21 06:14:00,
2013-06-21 02:19:00,71.2,43.6,30.15,North,0,0.0,0.0,37,0.00,CLR,FEW,0.00,WeatherDisplay:10.37,2013-06-21 06:19:00,
2013-06-21 02:24:00,70.9,44.0,30.15,North,0,0.0,0.0,38,0.00,CLR,FEW,0.00,WeatherDisplay:10.37,2013-06-21 06:24:00,
2013-06-21 02:29:00,70.5,43.7,30.15,North,0,0.0,0.0,38,0.00,CLR,FEW,0.00,WeatherDisplay:10.37,2013-06-21 06:29:00,
2013-06-21 02:34:00,70.3,43.5,30.15,North,0,0.0,0.0,38,0.00,CLR,FEW,0.00,WeatherDisplay:10.37,2013-06-21 06:34:00,
2013-06-21 02:39:00,70.2,43.4,30.15,North,0,0.0,0.0,38,0.00,CLR,FEW,0.00,WeatherDisplay:10.37,2013-06-21 06:39:00,
2013-06-21 02:44:00,70.0,43.9,30.15,North,0,0.0,0.0,39,0.00,CLR,FEW,0.00,WeatherDisplay:10.37,2013-06-21 06:44:00,
2013-06-21 02:49:00,69.8,43.7,30.12,North,0,0.0,0.0,39,0.00,CLR,FEW,0.00,WeatherDisplay:10.37,2013-06-21 06:49:00,
2013-06-21 02:54:00,69.6,43.6,30.12,North,0,0.0,0.0,39,0.00,CLR,FEW,0.00,WeatherDisplay:10.37,2013-06-21 06:54:00,
2013-06-21 02:59:00,69.6,43.6,30.12,North,0,0.0,0.0,39,0.00,CLR,FEW,0.00,WeatherDisplay:10.37,2013-06-21 06:59:00,
2013-06-21 03:04:00,69.4,42.7,30.15,North,0,0.0,0.0,38,0.00,CLR,FEW,0.00,WeatherDisplay:10.37,2013-06-21 07:04:00,
2013-06-21 03:09:00,69.4,43.4,30.15,North,0,0.0,0.0,39,0.00,CLR,FEW,0.00,WeatherDisplay:10.37,2013-06-21 07:09:00,
2013-06-21 03:14:00,69.4,43.4,30.15,North,0,0.0,0.0,39,0.00,CLR,FEW,0.00,WeatherDisplay:10.37,2013-06-21 07:14:00,
2013-06-21 03:19:00,69.3,43.2,30.15,North,0,0.0,0.0,39,0.00,CLR,FEW,0.00,WeatherDisplay:10.37,2013-06-21 07:19:00,
2013-06-21 03:24:00,69.3,43.2,30.15,North,0,0.0,0.0,39,0.00,CLR,FEW,0.00,WeatherDisplay:10.37,2013-06-21 07:24:00,
2013-06-21 03:29:00,69.1,43.7,30.15,North,0,0.0,0.0,40,0.00,CLR,FEW,0.00,WeatherDisplay:10.37,2013-06-21 07:29:00,
2013-06-21 03:34:00,69.1,43.7,30.15,North,0,0.0,0.0,40,0.00,CLR,FEW,0.00,WeatherDisplay:10.37,2013-06-21 07:34:00,
2013-06-21 03:39:00,68.9,43.6,30.15,North,0,0.0,0.0,40,0.00,CLR,FEW,0.00,WeatherDisplay:10.37,2013-06-21 07:39:00,
2013-06-21 03:44:00,68.7,43.4,30.15,North,0,0.0,0.0,40,0.00,CLR,FEW,0.00,WeatherDisplay:10.37,2013-06-21 07:44:00,
2013-06-21 03:49:00,68.7,44.1,30.15,North,0,0.0,0.0,41,0.00,CLR,FEW,0.00,WeatherDisplay:10.37,2013-06-21 07:49:00,
2013-06-21 03:54:00,68.5,43.9,30.15,North,0,0.0,0.0,41,0.00,CLR,FEW,0.00,WeatherDisplay:10.37,2013-06-21 07:54:00,
2013-06-21 03:59:00,68.5,44.5,30.15,North,0,0.0,0.0,42,0.00,CLR,FEW,0.00,WeatherDisplay:10.37,2013-06-21 07:59:00,
2013-06-21 04:04:00,68.4,44.4,30.12,North,0,0.0,0.0,42,0.00,CLR,FEW,0.00,WeatherDisplay:10.37,2013-06-21 08:04:00,
2013-06-21 04:09:00,68.4,45.0,30.12,North,0,0.0,0.0,43,0.00,CLR,FEW,0.00,WeatherDisplay:10.37,2013-06-21 08:09:00,
2013-06-21 04:14:00,68.2,44.8,30.12,North,0,0.0,0.0,43,0.00,CLR,FEW,0.00,WeatherDisplay:10.37,2013-06-21 08:14:00,
2013-06-21 04:19:00,68.2,46.0,30.12,North,0,0.0,0.0,45,0.00,CLR,FEW,0.00,WeatherDisplay:10.37,2013-06-21 08:19:00,
2013-06-21 04:24:00,68.2,46.6,30.12,North,0,0.0,0.0,46,0.00,CLR,FEW,0.00,WeatherDisplay:10.37,2013-06-21 08:24:00,
2013-06-21 04:29:00,68.2,47.2,30.12,North,0,0.0,0.0,47,0.00,CLR,FEW,0.00,WeatherDisplay:10.37,2013-06-21 08:29:00,
2013-06-21 04:34:00,68.2,47.2,30.12,North,0,0.0,0.0,47,0.00,CLR,FEW,0.00,WeatherDisplay:10.37,2013-06-21 08:34:00,
2013-06-21 04:39:00,68.2,47.7,30.12,North,0,0.0,0.0,48,0.00,CLR,FEW,0.00,WeatherDisplay:10.37,2013-06-21 08:39:00,
2013-06-21 04:44:00,68.2,47.7,30.12,North,0,0.0,0.0,48,0.00,CLR,FEW,0.00,WeatherDisplay:10.37,2013-06-21 08:44:00,
2013-06-21 04:49:00,68.2,47.7,30.12,North,0,0.0,0.0,48,0.00,CLR,FEW,0.00,WeatherDisplay:10.37,2013-06-21 08:49:00,
2013-06-21 04:54:00,68.0,47.0,30.12,North,0,0.0,0.0,47,0.00,CLR,FEW,0.00,WeatherDisplay:10.37,2013-06-21 08:54:00,
2013-06-21 04:59:00,67.8,47.4,30.12,North,0,0.0,0.0,48,0.00,CLR,FEW,0.00,WeatherDisplay:10.37,2013-06-21 08:59:00,
2013-06-21 05:04:00,67.5,47.1,30.12,North,0,0.0,0.0,48,0.00,CLR,FEW,0.00,WeatherDisplay:10.37,2013-06-21 09:04:00,
2013-06-21 05:09:00,67.3,46.9,30.12,North,0,0.0,0.0,48,0.00,CLR,FEW,0.00,WeatherDisplay:10.37,2013-06-21 09:09:00,
2013-06-21 05:14:00,66.9,46.6,30.12,North,0,0.0,0.0,48,0.00,CLR,FEW,0.00,WeatherDisplay:10.37,2013-06-21 09:14:00,
2013-06-21 05:19:00,66.7,47.0,30.12,North,0,0.0,0.0,49,0.00,CLR,FEW,0.00,WeatherDisplay:10.37,2013-06-21 09:19:00,
2013-06-21 05:24:00,66.7,47.0,30.12,North,0,0.0,0.0,49,0.00,CLR,FEW,0.00,WeatherDisplay:10.37,2013-06-21 09:24:00,
2013-06-21 05:29:00,66.6,47.3,30.12,North,0,0.0,0.0,50,0.00,CLR,FEW,0.00,WeatherDisplay:10.37,2013-06-21 09:29:00,
2013-06-21 05:34:00,66.6,47.3,30.15,North,0,0.0,0.0,50,0.00,CLR,FEW,0.00,WeatherDisplay:10.37,2013-06-21 09:34:00,
2013-06-21 05:39:00,66.4,47.7,30.15,North,0,0.0,0.0,51,0.00,CLR,FEW,0.00,WeatherDisplay:10.37,2013-06-21 09:39:00,
2013-06-21 05:44:00,66.2,47.5,30.15,North,0,0.0,0.0,51,0.00,CLR,FEW,0.00,WeatherDisplay:10.37,2013-06-21 09:44:00,
2013-06-21 05:49:00,66.2,47.5,30.15,North,0,0.0,0.0,51,0.00,CLR,FEW,0.00,WeatherDisplay:10.37,2013-06-21 09:49:00,
2013-06-21 05:54:00,66.0,47.9,30.15,North,0,0.0,0.0,52,0.00,CLR,FEW,0.00,WeatherDisplay:10.37,2013-06-21 09:54:00,
2013-06-21 05:59:00,65.8,47.7,30.15,North,0,0.0,0.0,52,0.00,CLR,FEW,0.00,WeatherDisplay:10.37,2013-06-21 09:59:00,
2013-06-21 06:04:00,65.8,48.2,30.15,North,0,0.0,0.0,53,0.00,CLR,FEW,0.00,WeatherDisplay:10.37,2013-06-21 10:04:00,
2013-06-21 06:09:00,65.8,48.2,30.15,North,0,0.0,0.0,53,0.00,CLR,FEW,0.00,WeatherDisplay:10.37,2013-06-21 10:09:00,
2013-06-21 06:14:00,65.8,48.2,30.15,North,0,0.0,0.0,53,0.00,CLR,FEW,0.00,WeatherDisplay:10.37,2013-06-21 10:14:00,
2013-06-21 06:19:00,65.8,48.2,30.15,North,0,0.0,0.0,53,0.00,CLR,FEW,0.00,WeatherDisplay:10.37,2013-06-21 10:19:00,
2013-06-21 06:24:00,65.8,48.7,30.15,North,0,0.0,0.0,54,0.00,CLR,FEW,0.00,WeatherDisplay:10.37,2013-06-21 10:24:00,
2013-06-21 06:29:00,66.0,49.4,30.15,North,0,0.0,0.0,55,0.00,CLR,FEW,0.00,WeatherDisplay:10.37,2013-06-21 10:29:00,
2013-06-21 06:34:00,66.0,49.4,30.15,North,0,0.0,0.0,55,0.00,CLR,FEW,0.00,WeatherDisplay:10.37,2013-06-21 10:34:00,
2013-06-21 06:39:00,66.0,49.4,30.15,North,0,0.0,0.0,55,0.00,CLR,FEW,0.00,WeatherDisplay:10.37,2013-06-21 10:39:00,
2013-06-21 06:44:00,66.2,49.6,30.15,North,0,0.0,0.0,55,0.00,CLR,FEW,0.00,WeatherDisplay:10.37,2013-06-21 10:44:00,
2013-06-21 06:49:00,66.4,49.7,30.15,North,0,0.0,0.0,55,0.00,CLR,FEW,0.00,WeatherDisplay:10.37,2013-06-21 10:49:00,
2013-06-21 06:54:00,66.4,49.7,30.15,North,0,0.0,0.0,55,0.00,CLR,FEW,0.00,WeatherDisplay:10.37,2013-06-21 10:54:00,
2013-06-21 06:59:00,66.6,49.9,30.15,North,0,0.0,0.0,55,0.00,CLR,FEW,0.00,WeatherDisplay:10.37,2013-06-21 10:59:00,
2013-06-21 07:04:00,66.6,50.4,30.15,North,0,0.0,0.0,56,0.00,CLR,FEW,0.00,WeatherDisplay:10.37,2013-06-21 11:04:00,
2013-06-21 07:09:00,66.7,50.5,30.15,North,0,0.0,0.0,56,0.00,CLR,FEW,0.00,WeatherDisplay:10.37,2013-06-21 11:09:00,
2013-06-21 07:14:00,66.7,50.5,30.15,North,0,0.0,0.0,56,0.00,CLR,FEW,0.00,WeatherDisplay:10.37,2013-06-21 11:14:00,
2013-06-21 07:19:00,66.7,51.0,30.18,North,0,0.0,0.0,57,0.00,CLR,FEW,0.00,WeatherDisplay:10.37,2013-06-21 11:19:00,
2013-06-21 07:24:00,66.9,51.2,30.18,North,0,0.0,0.0,57,0.00,CLR,FEW,0.00,WeatherDisplay:10.37,2013-06-21 11:24:00,
2013-06-21 07:29:00,66.9,51.2,30.18,North,0,0.0,0.0,57,0.00,CLR,FEW,0.00,WeatherDisplay:10.37,2013-06-21 11:29:00,
2013-06-21 07:34:00,66.9,51.7,30.18,North,0,0.0,0.0,58,0.00,CLR,FEW,0.00,WeatherDisplay:10.37,2013-06-21 11:34:00,
2013-06-21 07:38:00,67.1,52.3,30.18,North,0,0.0,0.0,59,0.00,CLR,FEW,0.00,WeatherDisplay:10.37,2013-06-21 11:38:00,
2013-06-21 07:43:00,67.1,52.7,30.18,North,0,0.0,0.0,60,0.00,CLR,FEW,0.00,WeatherDisplay:10.37,2013-06-21 11:43:00,
2013-06-21 07:48:00,67.1,52.7,30.15,North,0,0.0,0.0,60,0.00,CLR,FEW,0.00,WeatherDisplay:10.37,2013-06-21 11:48:00,
2013-06-21 07:53:00,67.1,52.7,30.15,North,0,0.0,0.0,60,0.00,CLR,FEW,0.00,WeatherDisplay:10.37,2013-06-21 11:53:00,
2013-06-21 07:58:00,67.3,53.4,30.15,North,0,0.0,0.0,61,0.00,CLR,FEW,0.00,WeatherDisplay:10.37,2013-06-21 11:58:00,
2013-06-21 08:03:00,67.5,53.5,30.18,North,0,0.0,0.0,61,0.00,CLR,FEW,0.00,WeatherDisplay:10.37,2013-06-21 12:03:00,
2013-06-21 08:08:00,67.6,53.7,30.18,North,0,0.0,0.0,61,0.00,CLR,FEW,0.00,WeatherDisplay:10.37,2013-06-21 12:08:00,
2013-06-21 08:13:00,67.8,54.3,30.18,North,0,0.0,0.0,62,0.00,CLR,FEW,0.00,WeatherDisplay:10.37,2013-06-21 12:13:00,
2013-06-21 08:18:00,68.0,54.9,30.18,North,0,0.0,0.0,63,0.00,CLR,FEW,0.00,WeatherDisplay:10.37,2013-06-21 12:18:00,
2013-06-21 08:23:00,68.2,55.5,30.18,North,0,0.0,0.0,64,0.00,CLR,FEW,0.00,WeatherDisplay:10.37,2013-06-21 12:23:00,
2013-06-21 08:28:00,68.2,55.5,30.18,North,0,0.0,0.0,64,0.00,CLR,FEW,0.00,WeatherDisplay:10.37,2013-06-21 12:28:00,
2013-06-21 08:33:00,68.4,55.3,30.18,North,0,0.0,0.0,63,0.00,CLR,FEW,0.00,WeatherDisplay:10.37,2013-06-21 12:33:00,
2013-06-21 08:38:00,68.4,55.3,30.18,North,0,0.0,0.0,63,0.00,CLR,FEW,0.00,WeatherDisplay:10.37,2013-06-21 12:38:00,
2013-06-21 08:43:00,68.5,55.9,30.18,North,0,0.0,0.0,64,0.00,CLR,FEW,0.00,WeatherDisplay:10.37,2013-06-21 12:43:00,
2013-06-21 08:48:00,68.5,55.9,30.18,North,0,0.0,0.0,64,0.00,CLR,FEW,0.00,WeatherDisplay:10.37,2013-06-21 12:48:00,
2013-06-21 08:53:00,68.7,56.0,30.18,North,0,0.0,0.0,64,0.00,CLR,FEW,0.00,WeatherDisplay:10.37,2013-06-21 12:53:00,
2013-06-21 08:58:00,68.9,56.2,30.18,North,0,0.0,0.0,64,0.00,CLR,FEW,0.00,WeatherDisplay:10.37,2013-06-21 12:58:00,
2013-06-21 09:03:00,69.1,56.4,30.18,North,0,0.0,0.0,64,0.00,CLR,FEW,0.00,WeatherDisplay:10.37,2013-06-21 13:03:00,
2013-06-21 09:08:00,69.4,56.3,30.18,North,0,0.0,0.0,63,0.00,CLR,FEW,0.00,WeatherDisplay:10.37,2013-06-21 13:08:00,
2013-06-21 09:13:00,70.0,55.9,30.18,North,0,0.0,0.0,61,0.00,CLR,FEW,0.00,WeatherDisplay:10.37,2013-06-21 13:13:00,
2013-06-21 09:18:00,70.5,56.4,30.18,North,0,0.0,0.0,61,0.00,CLR,FEW,0.00,WeatherDisplay:10.37,2013-06-21 13:18:00,
2013-06-21 09:23:00,70.7,55.7,30.18,North,0,0.0,0.0,59,0.00,CLR,FEW,0.00,WeatherDisplay:10.37,2013-06-21 13:23:00,
2013-06-21 09:28:00,70.7,55.2,30.18,North,0,0.0,0.0,58,0.00,CLR,FEW,0.00,WeatherDisplay:10.37,2013-06-21 13:28:00,
2013-06-21 09:33:00,70.7,54.7,30.18,North,0,0.0,0.0,57,0.00,CLR,FEW,0.00,WeatherDisplay:10.37,2013-06-21 13:33:00,
2013-06-21 09:38:00,70.9,54.9,30.18,North,0,0.0,0.0,57,0.00,CLR,FEW,0.00,WeatherDisplay:10.37,2013-06-21 13:38:00,
2013-06-21 09:43:00,71.2,55.2,30.18,North,0,0.0,0.0,57,0.00,CLR,FEW,0.00,WeatherDisplay:10.37,2013-06-21 13:43:00,
2013-06-21 09:48:00,71.8,53.7,30.18,North,0,0.0,0.0,53,0.00,CLR,FEW,0.00,WeatherDisplay:10.37,2013-06-21 13:48:00,
2013-06-21 09:53:00,72.3,54.2,30.18,North,0,0.0,0.0,53,0.00,CLR,FEW,0.00,WeatherDisplay:10.37,2013-06-21 13:53:00,
2013-06-21 09:58:00,73.0,53.3,30.18,North,0,0.0,0.0,50,0.00,CLR,FEW,0.00,WeatherDisplay:10.37,2013-06-21 13:58:00,
2013-06-21 10:03:00,74.1,53.7,30.18,North,0,0.0,0.0,49,0.00,CLR,FEW,0.00,WeatherDisplay:10.37,2013-06-21 14:03:00,
2013-06-21 10:08:00,74.8,53.3,30.18,North,0,0.0,0.0,47,0.00,CLR,FEW,0.00,WeatherDisplay:10.37,2013-06-21 14:08:00,
2013-06-21 10:13:00,75.2,51.8,30.18,North,0,0.0,0.0,44,0.00,CLR,FEW,0.00,WeatherDisplay:10.37,2013-06-21 14:13:00,
2013-06-21 10:18:00,75.4,51.9,30.18,North,0,0.0,0.0,44,0.00,CLR,FEW,0.00,WeatherDisplay:10.37,2013-06-21 14:18:00,
2013-06-21 10:23:00,75.7,52.9,30.18,North,0,0.0,0.0,45,0.00,CLR,FEW,0.00,WeatherDisplay:10.37,2013-06-21 14:23:00,
2013-06-21 10:28:00,76.5,54.1,30.18,North,0,0.0,0.0,46,0.00,CLR,FEW,0.00,WeatherDisplay:10.37,2013-06-21 14:28:00,
2013-06-21 10:33:00,77.0,52.8,30.18,North,0,0.0,0.0,43,0.00,CLR,FEW,0.00,WeatherDisplay:10.37,2013-06-21 14:33:00,
2013-06-21 10:38:00,77.2,52.9,30.18,North,0,0.0,0.0,43,0.00,CLR,FEW,0.00,WeatherDisplay:10.37,2013-06-21 14:38:00,
2013-06-21 10:44:00,77.5,52.6,30.18,North,0,0.0,0.0,42,0.00,CLR,FEW,0.00,WeatherDisplay:10.37,2013-06-21 14:44:00,
2013-06-21 10:49:00,77.4,51.8,30.18,North,0,0.0,0.0,41,0.00,CLR,FEW,0.00,WeatherDisplay:10.37,2013-06-21 14:49:00,
2013-06-21 10:54:00,77.5,52.6,30.18,North,0,0.0,0.0,42,0.00,CLR,FEW,0.00,WeatherDisplay:10.37,2013-06-21 14:54:00,
2013-06-21 10:59:00,77.4,51.8,30.18,North,0,0.0,0.0,41,0.00,CLR,FEW,0.00,WeatherDisplay:10.37,2013-06-21 14:59:00,
2013-06-21 11:04:00,77.5,52.6,30.18,North,0,0.0,0.0,42,0.00,CLR,FEW,0.00,WeatherDisplay:10.37,2013-06-21 15:04:00,
2013-06-21 11:10:00,78.6,52.9,30.18,North,0,0.0,0.0,41,0.00,CLR,FEW,0.00,WeatherDisplay:10.37,2013-06-21 15:10:00,
2013-06-21 11:15:00,79.7,51.8,30.18,North,0,0.0,0.0,38,0.00,CLR,FEW,0.00,WeatherDisplay:10.37,2013-06-21 15:15:00,
2013-06-21 11:20:00,80.2,52.3,30.18,North,0,0.0,0.0,38,0.00,CLR,FEW,0.00,WeatherDisplay:10.37,2013-06-21 15:20:00,
2013-06-21 11:25:00,80.6,52.6,30.18,North,0,0.0,0.0,38,0.00,CLR,FEW,0.00,WeatherDisplay:10.37,2013-06-21 15:25:00,
2013-06-21 11:30:00,80.8,51.3,30.15,North,0,0.0,0.0,36,0.00,CLR,FEW,0.00,WeatherDisplay:10.37,2013-06-21 15:30:00,
2013-06-21 11:35:00,81.0,51.5,30.15,North,0,0.0,0.0,36,0.00,CLR,FEW,0.00,WeatherDisplay:10.37,2013-06-21 15:35:00,
2013-06-21 11:40:00,81.0,49.9,30.15,North,0,0.0,0.0,34,0.00,CLR,FEW,0.00,WeatherDisplay:10.37,2013-06-21 15:40:00,
2013-06-21 11:46:00,81.5,50.4,30.18,North,0,0.0,0.0,34,0.00,CLR,FEW,0.00,WeatherDisplay:10.37,2013-06-21 15:46:00,
2013-06-21 11:51:00,81.5,52.0,30.18,North,0,0.0,0.0,36,0.00,CLR,FEW,0.00,WeatherDisplay:10.37,2013-06-21 15:51:00,
2013-06-21 11:56:00,81.1,50.1,30.18,North,0,0.0,0.0,34,0.00,CLR,FEW,0.00,WeatherDisplay:10.37,2013-06-21 15:56:00,
2013-06-21 12:01:00,80.8,49.8,30.18,North,0,0.0,0.0,34,0.00,CLR,FEW,0.00,WeatherDisplay:10.37,2013-06-21 16:01:00,
2013-06-21 12:06:00,80.4,50.3,30.18,North,0,0.0,0.0,35,0.00,CLR,FEW,0.00,WeatherDisplay:10.37,2013-06-21 16:06:00,
2013-06-21 12:12:00,80.8,50.6,30.18,North,0,0.0,0.0,35,0.00,CLR,FEW,0.00,WeatherDisplay:10.37,2013-06-21 16:12:00,
2013-06-21 12:17:00,81.1,50.9,30.18,North,0,0.0,0.0,35,0.00,CLR,FEW,0.00,WeatherDisplay:10.37,2013-06-21 16:17:00,
2013-06-21 12:22:00,81.5,51.2,30.18,North,0,0.0,0.0,35,0.00,CLR,FEW,0.00,WeatherDisplay:10.37,2013-06-21 16:22:00,
2013-06-21 12:27:00,82.0,51.7,30.18,North,0,0.0,0.0,35,0.00,CLR,FEW,0.00,WeatherDisplay:10.37,2013-06-21 16:27:00,
2013-06-21 12:32:00,81.7,50.6,30.18,North,0,0.0,0.0,34,0.00,CLR,FEW,0.00,WeatherDisplay:10.37,2013-06-21 16:32:00,
2013-06-21 12:37:00,81.5,51.2,30.18,North,0,0.0,0.0,35,0.00,CLR,FEW,0.00,WeatherDisplay:10.37,2013-06-21 16:37:00,
2013-06-21 12:42:00,81.9,51.5,30.18,North,0,0.0,0.0,35,0.00,CLR,FEW,0.00,WeatherDisplay:10.37,2013-06-21 16:42:00,
2013-06-21 12:47:00,82.2,51.8,30.18,North,0,0.0,0.0,35,0.00,CLR,FEW,0.00,WeatherDisplay:10.37,2013-06-21 16:47:00,
2013-06-21 12:52:00,82.0,50.9,30.18,North,0,0.0,0.0,34,0.00,CLR,FEW,0.00,WeatherDisplay:10.37,2013-06-21 16:52:00,
2013-06-21 12:58:00,82.2,52.6,30.18,North,0,0.0,0.0,36,0.00,CLR,FEW,0.00,WeatherDisplay:10.37,2013-06-21 16:58:00,
2013-06-21 13:03:00,82.4,50.4,30.18,North,0,0.0,0.0,33,0.00,CLR,FEW,0.00,WeatherDisplay:10.37,2013-06-21 17:03:00,
2013-06-21 13:08:00,82.8,51.5,30.18,North,0,0.0,0.0,34,0.00,CLR,FEW,0.00,WeatherDisplay:10.37,2013-06-21 17:08:00,
2013-06-21 13:13:00,82.6,52.2,30.18,North,0,0.0,0.0,35,0.00,CLR,FEW,0.00,WeatherDisplay:10.37,2013-06-21 17:13:00,
2013-06-21 13:19:00,82.8,51.5,30.15,North,0,0.0,0.0,34,0.00,CLR,FEW,0.00,WeatherDisplay:10.37,2013-06-21 17:19:00,
2013-06-21 13:24:00,82.2,50.2,30.15,North,0,0.0,0.0,33,0.00,CLR,FEW,0.00,WeatherDisplay:10.37,2013-06-21 17:24:00,
2013-06-21 13:29:00,81.9,52.3,30.15,North,0,0.0,0.0,36,0.00,CLR,FEW,0.00,WeatherDisplay:10.37,2013-06-21 17:29:00,
2013-06-21 13:35:00,81.9,50.7,30.15,North,0,0.0,0.0,34,0.00,CLR,FEW,0.00,WeatherDisplay:10.37,2013-06-21 17:35:00,
2013-06-21 13:43:00,81.9,52.3,30.15,North,0,0.0,0.0,36,0.00,CLR,FEW,0.00,WeatherDisplay:10.37,2013-06-21 17:43:00,
2013-06-21 13:46:00,81.9,51.5,30.15,North,0,0.0,0.0,35,0.00,CLR,FEW,0.00,WeatherDisplay:10.37,2013-06-21 17:46:00,
2013-06-21 13:47:00,81.9,52.3,30.15,North,0,0.0,0.0,36,0.00,CLR,FEW,0.00,WeatherDisplay:10.37,2013-06-21 17:47:00,
2013-06-21 13:48:00,81.9,51.5,30.15,North,0,0.0,0.0,35,0.00,CLR,FEW,0.00,WeatherDisplay:10.37,2013-06-21 17:48:00,
2013-06-21 13:50:00,82.0,51.7,30.15,North,0,0.0,0.0,35,0.00,CLR,FEW,0.00,WeatherDisplay:10.37,2013-06-21 17:50:00,
2013-06-21 13:56:00,82.2,51.8,30.15,North,0,0.0,0.0,35,0.00,CLR,FEW,0.00,WeatherDisplay:10.37,2013-06-21 17:56:00,
2013-06-21 14:01:00,82.4,51.2,30.15,North,0,0.0,0.0,34,0.00,CLR,FEW,0.00,WeatherDisplay:10.37,2013-06-21 18:01:00,
2013-06-21 14:07:00,82.2,51.8,30.15,North,0,0.0,0.0,35,0.00,CLR,FEW,0.00,WeatherDisplay:10.37,2013-06-21 18:07:00,
2013-06-21 14:12:00,82.6,52.2,30.15,North,0,0.0,0.0,35,0.00,CLR,FEW,0.00,WeatherDisplay:10.37,2013-06-21 18:12:00,
2013-06-21 14:18:00,82.6,52.9,30.15,North,0,0.0,0.0,36,0.00,CLR,FEW,0.00,WeatherDisplay:10.37,2013-06-21 18:18:00,
2013-06-21 14:23:00,82.8,52.3,30.15,North,0,0.0,0.0,35,0.00,CLR,FEW,0.00,WeatherDisplay:10.37,2013-06-21 18:23:00,
2013-06-21 14:24:00,82.8,52.3,30.15,North,0,0.0,0.0,35,0.00,CLR,FEW,0.00,WeatherDisplay:10.37,2013-06-21 18:24:00,
2013-06-21 14:25:00,82.8,52.3,30.15,North,0,0.0,0.0,35,0.00,CLR,FEW,0.00,WeatherDisplay:10.37,2013-06-21 18:25:00,
2013-06-21 14:26:00,82.8,53.1,30.15,North,0,0.0,0.0,36,0.00,CLR,FEW,0.00,WeatherDisplay:10.37,2013-06-21 18:26:00,
2013-06-21 14:27:00,82.9,54.0,30.15,North,0,0.0,0.0,37,0.00,CLR,FEW,0.00,WeatherDisplay:10.37,2013-06-21 18:27:00,
2013-06-21 14:32:00,83.3,52.0,30.15,North,0,0.0,0.0,34,0.00,CLR,FEW,0.00,WeatherDisplay:10.37,2013-06-21 18:32:00,
2013-06-21 14:37:00,83.1,53.4,30.15,North,0,0.0,0.0,36,0.00,CLR,FEW,0.00,WeatherDisplay:10.37,2013-06-21 18:37:00,
2013-06-21 14:43:00,83.7,53.1,30.15,North,0,0.0,0.0,35,0.00,CLR,FEW,0.00,WeatherDisplay:10.37,2013-06-21 18:43:00,
2013-06-21 14:45:00,83.7,53.1,30.15,North,0,0.0,0.0,35,0.00,CLR,FEW,0.00,WeatherDisplay:10.37,2013-06-21 18:45:00,
2013-06-21 14:47:00,83.7,52.3,30.15,North,0,0.0,0.0,34,0.00,CLR,FEW,0.00,WeatherDisplay:10.37,2013-06-21 18:47:00,
2013-06-21 14:48:00,83.7,53.9,30.15,North,0,0.0,0.0,36,0.00,CLR,FEW,0.00,WeatherDisplay:10.37,2013-06-21 18:48:00,
2013-06-21 14:50:00,83.8,52.5,30.15,North,0,0.0,0.0,34,0.00,CLR,FEW,0.00,WeatherDisplay:10.37,2013-06-21 18:50:00,
2013-06-21 14:52:00,83.8,52.5,30.15,North,0,0.0,0.0,34,0.00,CLR,FEW,0.00,WeatherDisplay:10.37,2013-06-21 18:52:00,
2013-06-21 14:57:00,83.5,52.2,30.15,North,0,0.0,0.0,34,0.00,CLR,FEW,0.00,WeatherDisplay:10.37,2013-06-21 18:57:00,
2013-06-21 15:03:00,83.1,54.1,30.15,North,0,0.0,0.0,37,0.00,CLR,FEW,0.00,WeatherDisplay:10.37,2013-06-21 19:03:00,
2013-06-21 15:08:00,82.8,53.8,30.15,North,0,0.0,0.0,37,0.00,CLR,FEW,0.00,WeatherDisplay:10.37,2013-06-21 19:08:00,
2013-06-21 15:15:00,82.8,54.6,30.15,North,0,0.0,0.0,38,0.00,CLR,FEW,0.00,WeatherDisplay:10.37,2013-06-21 19:15:00,
2013-06-21 15:21:00,82.8,52.3,30.15,North,0,0.0,0.0,35,0.00,CLR,FEW,0.00,WeatherDisplay:10.37,2013-06-21 19:21:00,
2013-06-21 15:23:00,82.6,52.9,30.15,North,0,0.0,0.0,36,0.00,CLR,FEW,0.00,WeatherDisplay:10.37,2013-06-21 19:23:00,
2013-06-21 15:28:00,82.0,54.6,30.15,North,0,0.0,0.0,39,0.00,CLR,FEW,0.00,WeatherDisplay:10.37,2013-06-21 19:28:00,
2013-06-21 15:33:00,82.0,53.9,30.15,North,0,0.0,0.0,38,0.00,CLR,FEW,0.00,WeatherDisplay:10.37,2013-06-21 19:33:00,
2013-06-21 15:38:00,81.9,54.5,30.15,North,0,0.0,0.0,39,0.00,CLR,FEW,0.00,WeatherDisplay:10.37,2013-06-21 19:38:00,
2013-06-21 15:42:00,81.9,54.5,30.15,North,0,0.0,0.0,39,0.00,CLR,FEW,0.00,WeatherDisplay:10.37,2013-06-21 19:42:00,
2013-06-21 15:48:00,81.7,54.3,30.15,North,0,0.0,0.0,39,0.00,CLR,FEW,0.00,WeatherDisplay:10.37,2013-06-21 19:48:00,
2013-06-21 15:53:00,82.0,55.3,30.15,North,0,0.0,0.0,40,0.00,CLR,FEW,0.00,WeatherDisplay:10.37,2013-06-21 19:53:00,
2013-06-21 15:58:00,82.6,55.1,30.15,North,0,0.0,0.0,39,0.00,CLR,FEW,0.00,WeatherDisplay:10.37,2013-06-21 19:58:00,
2013-06-21 16:03:00,82.9,54.0,30.15,North,0,0.0,0.0,37,0.00,CLR,FEW,0.00,WeatherDisplay:10.37,2013-06-21 20:03:00,
2013-06-21 16:08:00,82.6,54.4,30.15,North,0,0.0,0.0,38,0.00,CLR,FEW,0.00,WeatherDisplay:10.37,2013-06-21 20:08:00,
2013-06-21 16:11:00,82.2,54.1,30.15,North,0,0.0,0.0,38,0.00,CLR,FEW,0.00,WeatherDisplay:10.37,2013-06-21 20:11:00,
2013-06-21 16:17:00,81.9,55.2,30.15,North,0,0.0,0.0,40,0.00,CLR,FEW,0.00,WeatherDisplay:10.37,2013-06-21 20:17:00,
2013-06-21 16:22:00,81.7,54.3,30.15,North,0,0.0,0.0,39,0.00,CLR,FEW,0.00,WeatherDisplay:10.37,2013-06-21 20:22:00,
2013-06-21 16:27:00,81.7,55.7,30.15,North,0,0.0,0.0,41,0.00,CLR,FEW,0.00,WeatherDisplay:10.37,2013-06-21 20:27:00,
2013-06-21 16:32:00,82.2,55.5,30.15,North,0,0.0,0.0,40,0.00,CLR,FEW,0.00,WeatherDisplay:10.37,2013-06-21 20:32:00,
2013-06-21 16:35:00,82.8,55.3,30.15,North,0,0.0,0.0,39,0.00,CLR,FEW,0.00,WeatherDisplay:10.37,2013-06-21 20:35:00,
2013-06-21 16:40:00,82.8,53.8,30.15,North,0,0.0,0.0,37,0.00,CLR,FEW,0.00,WeatherDisplay:10.37,2013-06-21 20:40:00,
2013-06-21 16:46:00,82.2,55.5,30.15,North,0,0.0,0.0,40,0.00,CLR,FEW,0.00,WeatherDisplay:10.37,2013-06-21 20:46:00,
2013-06-21 16:51:00,82.0,55.3,30.15,North,0,0.0,0.0,40,0.00,CLR,FEW,0.00,WeatherDisplay:10.37,2013-06-21 20:51:00,
2013-06-21 16:56:00,81.9,55.2,30.15,North,0,0.0,0.0,40,0.00,CLR,FEW,0.00,WeatherDisplay:10.37,2013-06-21 20:56:00,
2013-06-21 17:01:00,81.7,55.7,30.12,North,0,0.0,0.0,41,0.00,CLR,FEW,0.00,WeatherDisplay:10.37,2013-06-21 21:01:00,
2013-06-21 17:06:00,81.7,55.7,30.12,North,0,0.0,0.0,41,0.00,CLR,FEW,0.00,WeatherDisplay:10.37,2013-06-21 21:06:00,
2013-06-21 17:07:00,81.9,55.9,30.12,North,0,0.0,0.0,41,0.00,CLR,FEW,0.00,WeatherDisplay:10.37,2013-06-21 21:07:00,
2013-06-21 17:12:00,82.0,55.3,30.12,North,0,0.0,0.0,40,0.00,CLR,FEW,0.00,WeatherDisplay:10.37,2013-06-21 21:12:00,
2013-06-21 17:17:00,82.6,55.8,30.12,North,0,0.0,0.0,40,0.00,CLR,FEW,0.00,WeatherDisplay:10.37,2013-06-21 21:17:00,
2013-06-21 17:22:00,82.4,55.0,30.12,North,0,0.0,0.0,39,0.00,CLR,FEW,0.00,WeatherDisplay:10.37,2013-06-21 21:22:00,
2013-06-21 17:27:00,82.2,56.2,30.12,North,0,0.0,0.0,41,0.00,CLR,FEW,0.00,WeatherDisplay:10.37,2013-06-21 21:27:00,
2013-06-21 17:32:00,82.0,57.3,30.12,North,0,0.0,0.0,43,0.00,CLR,FEW,0.00,WeatherDisplay:10.37,2013-06-21 21:32:00,
2013-06-21 17:37:00,81.3,56.0,30.12,North,0,0.0,0.0,42,0.00,CLR,FEW,0.00,WeatherDisplay:10.37,2013-06-21 21:37:00,
2013-06-21 17:42:00,81.0,56.4,30.12,North,0,0.0,0.0,43,0.00,CLR,FEW,0.00,WeatherDisplay:10.37,2013-06-21 21:42:00,
2013-06-21 17:48:00,80.6,57.3,30.12,North,0,0.0,0.0,45,0.00,CLR,FEW,0.00,WeatherDisplay:10.37,2013-06-21 21:48:00,
2013-06-21 17:53:00,79.9,59.6,30.12,North,0,0.0,0.0,50,0.00,CLR,FEW,0.00,WeatherDisplay:10.37,2013-06-21 21:53:00,
2013-06-21 17:58:00,78.3,59.2,30.12,North,0,0.0,0.0,52,0.00,CLR,FEW,0.00,WeatherDisplay:10.37,2013-06-21 21:58:00,
2013-06-21 18:03:00,77.7,61.3,30.12,North,0,0.0,0.0,57,0.00,CLR,FEW,0.00,WeatherDisplay:10.37,2013-06-21 22:03:00,
2013-06-21 18:08:00,77.2,61.7,30.12,North,0,0.0,0.0,59,0.00,CLR,FEW,0.00,WeatherDisplay:10.37,2013-06-21 22:08:00,
2013-06-21 18:13:00,76.8,62.3,30.12,North,0,0.0,0.0,61,0.00,CLR,FEW,0.00,WeatherDisplay:10.37,2013-06-21 22:13:00,
2013-06-21 18:18:00,76.6,63.1,30.12,North,0,0.0,0.0,63,0.00,CLR,FEW,0.00,WeatherDisplay:10.37,2013-06-21 22:18:00,
2013-06-21 18:23:00,76.6,64.0,30.12,North,0,0.0,0.0,65,0.00,CLR,FEW,0.00,WeatherDisplay:10.37,2013-06-21 22:23:00,
2013-06-21 18:28:00,76.8,65.9,30.12,North,0,0.0,0.0,69,0.00,CLR,FEW,0.00,WeatherDisplay:10.37,2013-06-21 22:28:00,
2013-06-21 18:34:00,76.8,67.1,30.12,North,0,0.0,0.0,72,0.04,RA,FEW,0.04,WeatherDisplay:10.37,2013-06-21 22:34:00,
2013-06-21 18:39:00,76.6,67.3,30.12,North,0,0.0,0.0,73,0.04,RA,FEW,0.04,WeatherDisplay:10.37,2013-06-21 22:39:00,
2013-06-21 18:44:00,76.5,67.2,30.12,North,0,0.0,0.0,73,0.04,,FEW,0.04,WeatherDisplay:10.37,2013-06-21 22:44:00,
2013-06-21 18:49:00,76.1,67.6,30.12,North,0,0.0,0.0,75,0.04,CLR,FEW,0.04,WeatherDisplay:10.37,2013-06-21 22:49:00,
2013-06-21 18:54:00,75.9,67.8,30.12,North,0,0.0,0.0,76,0.04,CLR,FEW,0.04,WeatherDisplay:10.37,2013-06-21 22:54:00,
2013-06-21 18:59:00,75.9,67.8,30.12,North,0,0.0,0.0,76,0.04,CLR,FEW,0.04,WeatherDisplay:10.37,2013-06-21 22:59:00,
2013-06-21 19:04:00,75.6,67.8,30.12,North,0,0.0,0.0,77,0.04,CLR,FEW,0.04,WeatherDisplay:10.37,2013-06-21 23:04:00,
2013-06-21 19:09:00,75.6,67.8,30.12,North,0,0.0,0.0,77,0.04,CLR,FEW,0.04,WeatherDisplay:10.37,2013-06-21 23:09:00,
2013-06-21 19:14:00,75.6,67.8,30.12,North,0,0.0,0.0,77,0.04,CLR,FEW,0.04,WeatherDisplay:10.37,2013-06-21 23:14:00,
2013-06-21 19:19:00,75.6,68.2,30.12,North,0,0.0,0.0,78,0.04,CLR,FEW,0.04,WeatherDisplay:10.37,2013-06-21 23:19:00,
2013-06-21 19:24:00,75.6,68.2,30.12,North,0,0.0,0.0,78,0.04,CLR,FEW,0.04,WeatherDisplay:10.37,2013-06-21 23:24:00,
2013-06-21 19:29:00,75.6,68.2,30.12,North,0,0.0,0.0,78,0.04,CLR,FEW,0.04,WeatherDisplay:10.37,2013-06-21 23:29:00,
2013-06-21 19:34:00,75.6,68.6,30.12,North,0,0.0,0.0,79,0.00,CLR,FEW,0.04,WeatherDisplay:10.37,2013-06-21 23:34:00,
2013-06-21 19:39:00,75.6,69.0,30.12,North,0,0.0,0.0,80,0.00,CLR,FEW,0.04,WeatherDisplay:10.37,2013-06-21 23:39:00,
2013-06-21 19:44:00,75.6,69.0,30.12,North,0,0.0,0.0,80,0.00,CLR,FEW,0.04,WeatherDisplay:10.37,2013-06-21 23:44:00,
2013-06-21 19:49:00,75.6,69.0,30.12,North,0,0.0,0.0,80,0.00,CLR,FEW,0.04,WeatherDisplay:10.37,2013-06-21 23:49:00,
2013-06-21 19:54:00,75.6,69.3,30.12,North,0,0.0,0.0,81,0.00,CLR,FEW,0.04,WeatherDisplay:10.37,2013-06-21 23:54:00,
2013-06-21 19:59:00,75.7,69.9,30.12,North,0,0.0,0.0,82,0.00,CLR,FEW,0.04,WeatherDisplay:10.37,2013-06-21 23:59:00,
2013-06-21 20:04:00,75.7,70.2,30.12,North,0,0.0,0.0,83,0.00,CLR,FEW,0.04,WeatherDisplay:10.37,2013-06-22 00:04:00,
2013-06-21 20:09:00,75.7,70.2,30.12,North,0,0.0,0.0,83,0.00,CLR,FEW,0.04,WeatherDisplay:10.37,2013-06-22 00:09:00,
2013-06-21 20:14:00,75.7,70.2,30.12,North,0,0.0,0.0,83,0.00,CLR,FEW,0.04,WeatherDisplay:10.37,2013-06-22 00:14:00,
2013-06-21 20:19:00,75.6,70.0,30.12,North,0,0.0,0.0,83,0.00,CLR,FEW,0.04,WeatherDisplay:10.37,2013-06-22 00:19:00,
2013-06-21 20:24:00,75.4,70.2,30.12,North,0,0.0,0.0,84,0.00,CLR,FEW,0.04,WeatherDisplay:10.37,2013-06-22 00:24:00,
2013-06-21 20:29:00,75.2,70.0,30.12,North,0,0.0,0.0,84,0.00,CLR,FEW,0.04,WeatherDisplay:10.37,2013-06-22 00:29:00,
2013-06-21 20:34:00,75.2,70.0,30.12,North,0,0.0,0.0,84,0.00,CLR,FEW,0.04,WeatherDisplay:10.37,2013-06-22 00:34:00,
2013-06-21 20:39:00,75.0,70.2,30.12,North,0,0.0,0.0,85,0.00,CLR,FEW,0.04,WeatherDisplay:10.37,2013-06-22 00:39:00,
2013-06-21 20:44:00,75.0,70.2,30.12,North,0,0.0,0.0,85,0.00,CLR,FEW,0.04,WeatherDisplay:10.37,2013-06-22 00:44:00,
2013-06-21 20:49:00,75.0,70.2,30.12,North,0,0.0,0.0,85,0.00,CLR,FEW,0.04,WeatherDisplay:10.37,2013-06-22 00:49:00,
2013-06-21 20:54:00,75.2,70.4,30.12,North,0,0.0,0.0,85,0.00,CLR,FEW,0.04,WeatherDisplay:10.37,2013-06-22 00:54:00,
2013-06-21 20:59:00,75.2,70.4,30.12,North,0,0.0,0.0,85,0.00,CLR,FEW,0.04,WeatherDisplay:10.37,2013-06-22 00:59:00,
2013-06-21 21:04:00,75.2,70.4,30.12,North,0,0.0,0.0,85,0.00,CLR,FEW,0.04,WeatherDisplay:10.37,2013-06-22 01:04:00,
2013-06-21 21:09:00,75.2,70.4,30.12,North,0,0.0,0.0,85,0.00,CLR,FEW,0.04,WeatherDisplay:10.37,2013-06-22 01:09:00,
2013-06-21 21:14:00,75.0,70.2,30.12,North,0,0.0,0.0,85,0.00,CLR,FEW,0.04,WeatherDisplay:10.37,2013-06-22 01:14:00,
2013-06-21 21:19:00,74.8,70.0,30.12,North,0,0.0,0.0,85,0.00,CLR,FEW,0.04,WeatherDisplay:10.37,2013-06-22 01:19:00,
2013-06-21 21:24:00,74.7,69.8,30.12,North,0,0.0,0.0,85,0.00,CLR,FEW,0.04,WeatherDisplay:10.37,2013-06-22 01:24:00,
2013-06-21 21:29:00,74.7,69.8,30.12,North,0,0.0,0.0,85,0.00,CLR,FEW,0.04,WeatherDisplay:10.37,2013-06-22 01:29:00,
2013-06-21 21:34:00,74.7,69.5,30.12,North,0,0.0,0.0,84,0.00,CLR,FEW,0.04,WeatherDisplay:10.37,2013-06-22 01:34:00,
2013-06-21 21:39:00,74.5,69.3,30.12,North,0,0.0,0.0,84,0.00,CLR,FEW,0.04,WeatherDisplay:10.37,2013-06-22 01:39:00,
2013-06-21 21:44:00,74.5,69.3,30.12,North,0,0.0,0.0,84,0.00,CLR,FEW,0.04,WeatherDisplay:10.37,2013-06-22 01:44:00,
2013-06-21 21:49:00,74.5,69.3,30.12,North,0,0.0,0.0,84,0.00,CLR,FEW,0.04,WeatherDisplay:10.37,2013-06-22 01:49:00,
2013-06-21 21:54:00,74.3,69.1,30.12,North,0,0.0,0.0,84,0.00,CLR,FEW,0.04,WeatherDisplay:10.37,2013-06-22 01:54:00,
2013-06-21 21:59:00,74.3,69.1,30.12,North,0,0.0,0.0,84,0.00,CLR,FEW,0.04,WeatherDisplay:10.37,2013-06-22 01:59:00,
2013-06-21 22:04:00,74.3,69.1,30.15,North,0,0.0,0.0,84,0.00,CLR,FEW,0.04,WeatherDisplay:10.37,2013-06-22 02:04:00,
2013-06-21 22:09:00,74.1,69.3,30.15,North,0,0.0,0.0,85,0.00,CLR,FEW,0.04,WeatherDisplay:10.37,2013-06-22 02:09:00,
2013-06-21 22:14:00,74.1,69.3,30.15,North,0,0.0,0.0,85,0.00,CLR,FEW,0.04,WeatherDisplay:10.37,2013-06-22 02:14:00,
2013-06-21 22:19:00,73.9,69.1,30.15,North,0,0.0,0.0,85,0.00,CLR,FEW,0.04,WeatherDisplay:10.37,2013-06-22 02:19:00,
2013-06-21 22:24:00,73.9,69.1,30.15,North,0,0.0,0.0,85,0.00,CLR,FEW,0.04,WeatherDisplay:10.37,2013-06-22 02:24:00,
2013-06-21 22:29:00,73.8,69.0,30.15,North,0,0.0,0.0,85,0.00,CLR,FEW,0.04,WeatherDisplay:10.37,2013-06-22 02:29:00,
2013-06-21 22:34:00,73.8,69.0,30.15,North,0,0.0,0.0,85,0.00,CLR,FEW,0.04,WeatherDisplay:10.37,2013-06-22 02:34:00,
2013-06-21 22:39:00,73.8,69.3,30.15,North,0,0.0,0.0,86,0.00,CLR,FEW,0.04,WeatherDisplay:10.37,2013-06-22 02:39:00,
2013-06-21 22:44:00,73.6,69.1,30.15,North,0,0.0,0.0,86,0.00,CLR,FEW,0.04,WeatherDisplay:10.37,2013-06-22 02:44:00,
2013-06-21 22:49:00,73.6,69.1,30.15,North,0,0.0,0.0,86,0.00,CLR,FEW,0.04,WeatherDisplay:10.37,2013-06-22 02:49:00,
2013-06-21 22:54:00,73.6,69.5,30.15,North,0,0.0,0.0,87,0.00,CLR,FEW,0.04,WeatherDisplay:10.37,2013-06-22 02:54:00,
2013-06-21 22:59:00,73.4,69.3,30.15,North,0,0.0,0.0,87,0.00,CLR,FEW,0.04,WeatherDisplay:10.37,2013-06-22 02:59:00,
2013-06-21 23:04:00,73.2,69.5,30.15,North,0,0.0,0.0,88,0.00,CLR,FEW,0.04,WeatherDisplay:10.37,2013-06-22 03:04:00,
2013-06-21 23:09:00,73.2,69.5,30.15,North,0,0.0,0.0,88,0.00,CLR,FEW,0.04,WeatherDisplay:10.37,2013-06-22 03:09:00,
2013-06-21 23:14:00,73.0,69.3,30.15,North,0,0.0,0.0,88,0.00,CLR,FEW,0.04,WeatherDisplay:10.37,2013-06-22 03:14:00,
2013-06-21 23:19:00,73.0,69.3,30.12,North,0,0.0,0.0,88,0.00,CLR,FEW,0.04,WeatherDisplay:10.37,2013-06-22 03:19:00,
2013-06-21 23:24:00,73.0,69.3,30.12,North,0,0.0,0.0,88,0.00,CLR,FEW,0.04,WeatherDisplay:10.37,2013-06-22 03:24:00,
2013-06-21 23:29:00,72.9,69.1,30.12,North,0,0.0,0.0,88,0.00,CLR,FEW,0.04,WeatherDisplay:10.37,2013-06-22 03:29:00,
2013-06-21 23:34:00,72.9,69.1,30.12,North,0,0.0,0.0,88,0.00,CLR,FEW,0.04,WeatherDisplay:10.37,2013-06-22 03:34:00,
2013-06-21 23:39:00,72.7,68.9,30.12,North,0,0.0,0.0,88,0.00,CLR,FEW,0.04,WeatherDisplay:10.37,2013-06-22 03:39:00,
2013-06-21 23:44:00,72.7,68.9,30.12,North,0,0.0,0.0,88,0.00,CLR,FEW,0.04,WeatherDisplay:10.37,2013-06-22 03:44:00,
2013-06-21 23:49:00,72.7,69.2,30.12,North,0,0.0,0.0,89,0.00,CLR,FEW,0.04,WeatherDisplay:10.37,2013-06-22 03:49:00,
2013-06-21 23:54:00,72.7,69.2,30.12,North,0,0.0,0.0,89,0.00,CLR,FEW,0.04,WeatherDisplay:10.37,2013-06-22 03:54:00,
2013-06-21 23:59:00,72.7,69.2,30.12,North,0,0.0,0.0,89,0.00,CLR,FEW,0.04,WeatherDisplay:10.37,2013-06-22 03:59:00,